Hourly Weather Jubail

Today, 5 December, Saturday

Time Temperature Precipitation Wind Pressure Humidity
00:00 +22°C° 0.3 mm 4 mps 762 mmHg 83%
01:00 +22°C° 0.1 mm 4 mps 761 mmHg 83%
02:00 +22°C° 0.1 mm 4 mps 761 mmHg 83%
03:00 +22°C° 0.1 mm 4 mps 761 mmHg 84%
04:00 +22°C° 0.3 mm 4 mps 761 mmHg 84%
05:00 +22°C° 0.3 mm 4 mps 761 mmHg 84%
06:00 +22°C° 0.3 mm 5 mps 761 mmHg 85%
07:00 +23°C° 0.1 mm 4 mps 761 mmHg 80%
08:00 +25°C° 0.1 mm 4 mps 761 mmHg 74%
09:00 +25°C° 0.1 mm 4 mps 762 mmHg 69%
10:00 +26°C° 0 mm 4 mps 761 mmHg 66%
11:00 +27°C° 0 mm 4 mps 761 mmHg 63%
12:00 +27°C° 0 mm 4 mps 760 mmHg 60%
13:00 +27°C° 0 mm 4 mps 760 mmHg 61%
14:00 +27°C° 0 mm 3 mps 759 mmHg 62%
15:00 +27°C° 0 mm 3 mps 759 mmHg 63%
16:00 +26°C° 0 mm 3 mps 759 mmHg 66%
17:00 +25°C° 0 mm 3 mps 759 mmHg 69%
18:00 +25°C° 0 mm 3 mps 759 mmHg 72%
19:00 +25°C° 0 mm 4 mps 759 mmHg 72%
20:00 +25°C° 0 mm 4 mps 759 mmHg 72%
21:00 +25°C° 0 mm 5 mps 759 mmHg 72%
22:00 +25°C° 0 mm 5 mps 758 mmHg 73%
23:00 +25°C° 0 mm 4 mps 758 mmHg 74%

Tomorrow, 6 December, Sunday

Time Temperature Precipitation Wind Pressure Humidity
00:00 +25°C° 0 mm 4 mps 758 mmHg 75%
01:00 +25°C° 0 mm 4 mps 758 mmHg 76%
02:00 +25°C° 0 mm 4 mps 757 mmHg 78%
03:00 +24°C° 0 mm 3 mps 757 mmHg 80%
04:00 +23°C° 0 mm 4 mps 757 mmHg 81%
05:00 +23°C° 0 mm 5 mps 758 mmHg 83%
06:00 +23°C° 0 mm 6 mps 758 mmHg 85%
07:00 +24°C° 0 mm 6 mps 758 mmHg 76%
08:00 +26°C° 0 mm 7 mps 758 mmHg 68%
09:00 +26°C° 0 mm 7 mps 758 mmHg 59%
10:00 +27°C° 0.2 mm 7 mps 758 mmHg 52%
11:00 +28°C° 0.2 mm 6 mps 758 mmHg 44%
12:00 +30°C° 0.2 mm 5 mps 757 mmHg 37%
13:00 +29°C° 0.3 mm 6 mps 757 mmHg 44%
14:00 +28°C° 0.3 mm 7 mps 757 mmHg 51%
15:00 +28°C° 0.3 mm 8 mps 756 mmHg 58%
16:00 +27°C° 0 mm 8 mps 757 mmHg 61%
17:00 +26°C° 0 mm 8 mps 758 mmHg 64%
18:00 +24°C° 0 mm 8 mps 759 mmHg 67%
19:00 +23°C° 0 mm 8 mps 760 mmHg 68%
20:00 +22°C° 0 mm 9 mps 760 mmHg 68%
21:00 +22°C° 0 mm 9 mps 761 mmHg 68%
22:00 +21°C° 0 mm 9 mps 761 mmHg 67%
23:00 +21°C° 0 mm 9 mps 761 mmHg 66%

Day after tomorrow, 7 December, Monday

Time Temperature Precipitation Wind Pressure Humidity
00:00 +20°C° 0 mm 8 mps 761 mmHg 65%
01:00 +20°C° 0 mm 8 mps 762 mmHg 64%
02:00 +18°C° 0 mm 8 mps 762 mmHg 64%
03:00 +18°C° 0 mm 8 mps 762 mmHg 63%
04:00 +18°C° 0 mm 8 mps 762 mmHg 63%
05:00 +17°C° 0 mm 8 mps 763 mmHg 63%
06:00 +17°C° 0 mm 8 mps 763 mmHg 63%
07:00 +18°C° 0 mm 8 mps 763 mmHg 58%
08:00 +20°C° 0 mm 7 mps 764 mmHg 53%
09:00 +21°C° 0 mm 7 mps 764 mmHg 49%
10:00 +22°C° 0 mm 7 mps 764 mmHg 44%
11:00 +22°C° 0 mm 7 mps 764 mmHg 40%
12:00 +23°C° 0 mm 7 mps 764 mmHg 36%
13:00 +23°C° 0 mm 7 mps 763 mmHg 36%
14:00 +22°C° 0 mm 7 mps 763 mmHg 37%
15:00 +22°C° 0 mm 8 mps 763 mmHg 37%
16:00 +21°C° 0 mm 7 mps 764 mmHg 39%
17:00 +21°C° 0 mm 7 mps 764 mmHg 41%
18:00 +20°C° 0 mm 7 mps 764 mmHg 43%
19:00 +18°C° 0 mm 7 mps 765 mmHg 43%
20:00 +18°C° 0 mm 7 mps 765 mmHg 43%
21:00 +18°C° 0 mm 7 mps 765 mmHg 44%
22:00 +17°C° 0 mm 7 mps 765 mmHg 44%
23:00 +17°C° 0 mm 7 mps 765 mmHg 44%

8 December, Tuesday

Time Temperature Precipitation Wind Pressure Humidity
00:00 +17°C° 0 mm 7 mps 765 mmHg 44%
01:00 +16°C° 0 mm 7 mps 765 mmHg 46%
02:00 +16°C° 0 mm 8 mps 764 mmHg 47%
03:00 +16°C° 0 mm 8 mps 764 mmHg 49%
04:00 +15°C° 0 mm 8 mps 765 mmHg 50%
05:00 +15°C° 0 mm 8 mps 765 mmHg 52%
06:00 +15°C° 0 mm 8 mps 765 mmHg 53%
07:00 +16°C° 0 mm 8 mps 766 mmHg 51%
08:00 +17°C° 0 mm 8 mps 766 mmHg 49%
09:00 +18°C° 0 mm 8 mps 767 mmHg 47%
10:00 +20°C° 0 mm 8 mps 766 mmHg 44%
11:00 +21°C° 0 mm 8 mps 766 mmHg 41%
12:00 +22°C° 0 mm 8 mps 765 mmHg 39%
13:00 +22°C° 0 mm 8 mps 765 mmHg 37%
14:00 +21°C° 0 mm 8 mps 765 mmHg 35%
15:00 +21°C° 0 mm 8 mps 764 mmHg 33%
16:00 +21°C° 0 mm 7 mps 765 mmHg 34%
17:00 +20°C° 0 mm 7 mps 765 mmHg 35%
18:00 +18°C° 0 mm 7 mps 765 mmHg 36%
19:00 +17°C° 0 mm 7 mps 765 mmHg 36%
20:00 +17°C° 0 mm 7 mps 766 mmHg 36%
21:00 +16°C° 0 mm 6 mps 766 mmHg 36%
22:00 +16°C° 0 mm 6 mps 766 mmHg 36%
23:00 +16°C° 0 mm 6 mps 765 mmHg 36%

9 December, Wednesday

Time Temperature Precipitation Wind Pressure Humidity
00:00 +15°C° 0 mm 6 mps 765 mmHg 37%
01:00 +15°C° 0 mm 6 mps 765 mmHg 38%
02:00 +15°C° 0 mm 6 mps 765 mmHg 39%
03:00 +14°C° 0 mm 7 mps 765 mmHg 40%
04:00 +14°C° 0 mm 6 mps 765 mmHg 42%
05:00 +14°C° 0 mm 6 mps 765 mmHg 44%
06:00 +14°C° 0 mm 6 mps 765 mmHg 46%
07:00 +15°C° 0 mm 6 mps 765 mmHg 44%
08:00 +16°C° 0 mm 6 mps 766 mmHg 42%
09:00 +17°C° 0 mm 6 mps 766 mmHg 41%
10:00 +18°C° 0 mm 7 mps 765 mmHg 38%
11:00 +21°C° 0 mm 7 mps 765 mmHg 36%
12:00 +22°C° 0 mm 7 mps 764 mmHg 34%
13:00 +22°C° 0 mm 7 mps 764 mmHg 34%
14:00 +22°C° 0 mm 7 mps 763 mmHg 35%
15:00 +22°C° 0 mm 8 mps 763 mmHg 35%
16:00 +21°C° 0 mm 7 mps 763 mmHg 39%
17:00 +20°C° 0 mm 7 mps 763 mmHg 43%
18:00 +20°C° 0 mm 6 mps 763 mmHg 47%
19:00 +19°C° 0 mm 6 mps 764 mmHg 48%
20:00 +19°C° 0 mm 6 mps 764 mmHg 48%
21:00 +19°C° 0 mm 6 mps 764 mmHg 49%
22:00 +17°C° 0 mm 6 mps 764 mmHg 48%
23:00 +17°C° 0 mm 6 mps 763 mmHg 48%

10 December, Thursday

Time Temperature Precipitation Wind Pressure Humidity
00:00 +17°C° 0 mm 6 mps 763 mmHg 47%
01:00 +16°C° 0 mm 6 mps 763 mmHg 48%
02:00 +16°C° 0 mm 6 mps 763 mmHg 49%
03:00 +16°C° 0 mm 6 mps 763 mmHg 49%
04:00 +16°C° 0 mm 6 mps 763 mmHg 50%
05:00 +16°C° 0 mm 6 mps 763 mmHg 50%
06:00 +15°C° 0 mm 6 mps 763 mmHg 50%
07:00 +17°C° 0 mm 6 mps 764 mmHg 47%
08:00 +19°C° 0 mm 6 mps 764 mmHg 44%
09:00 +20°C° 0 mm 5 mps 764 mmHg 40%
10:00 +21°C° 0 mm 6 mps 764 mmHg 38%
11:00 +23°C° 0 mm 6 mps 763 mmHg 36%
12:00 +24°C° 0 mm 6 mps 763 mmHg 34%
13:00 +24°C° 0 mm 6 mps 763 mmHg 34%
14:00 +24°C° 0 mm 6 mps 762 mmHg 33%
15:00 +24°C° 0 mm 6 mps 762 mmHg 33%
16:00 +23°C° 0 mm 6 mps 762 mmHg 36%
17:00 +22°C° 0 mm 5 mps 763 mmHg 40%
18:00 +21°C° 0 mm 5 mps 763 mmHg 43%
19:00 +20°C° 0 mm 5 mps 763 mmHg 44%
20:00 +20°C° 0 mm 5 mps 763 mmHg 45%
21:00 +20°C° 0 mm 5 mps 763 mmHg 46%
22:00 +19°C° 0 mm 5 mps 763 mmHg 47%
23:00 +19°C° 0 mm 5 mps 763 mmHg 48%
Show more